Temp
70 70 69 70 70 70 72 73 72 73 74 74 75 76 76 77 77 76 76 77 76 71 71 72 73 72 75 74 75 75 75 75 74 74 74 74 73 73 73 73 73 73 73 73 73 72 72 73 73 74 75 75 75 71 67 67 67 68 68 69 70 67
70 70 70 70 71 71 71 72 69 70 71 72 73 75 75 73 76 72 77 73 69 72 69 68 71 75 73 74 74 75 75 75 74 74 74 74 73 73 73 73 73 73 73 73 72 67 67 70 73 74 74 75 71 67 67 67 67 68 68 68 69 68
70 70 70 70 70 71 70 69 69 69 70 72 72 72 70 74 70 70 69 70 70 69 68 69 70 72 72 74 73 76 75 75 74 74 74 74 73 73 73 73 73 73 73 73 67 64 65 64 67 74 72 70 67 67 67 67 67 67 68 68 69 70
70 70 70 69 69 69 69 68 68 68 68 68 69 69 69 69 69 69 69 69 68 69 69 67 74 75 76 71 72 76 75 75 75 74 75 71 70 71 72 72 73 72 70 69 67 66 66 65 65 65 65 66 67 67 67 67 68 68 67 69 69 71
69 69 69 69 69 68 68 67 67 67 67 67 67 67 69 68 68 68 68 68 67 69 67 67 69 70 68 67 66 67 70 69 68 68 70 62 62 64 65 65 67 69 67 68 67 67 66 67 67 67 67 66 67 66 67 68 68 68 68 68 70 72
69 69 69 69 68 69 69 67 67 68 67 67 67 68 69 68 67 67 67 68 68 67 67 67 67 66 67 66 66 66 65 65 65 66 68 64 63 63 62 64 65 67 67 67 66 66 68 68 67 67 67 66 66 66 67 67 67 68 67 67 70 72
69 69 68 68 69 70 68 67 67 68 67 66 68 68 68 67 67 67 67 68 66 65 66 66 66 66 66 65 66 65 65 65 65 65 66 65 65 64 65 66 66 66 66 67 68 69 68 68 68 68 67 67 67 67 66 67 67 67 67 67 69 72
69 69 68 69 69 68 68 68 68 70 69 69 69 68 67 67 66 66 67 68 68 66 66 66 66 65 66 65 67 65 64 65 65 66 65 66 65 65 65 65 66 66 68 68 69 70 69 70 68 68 68 67 67 67 66 67 67 67 67 67 68 72
69 69 69 68 67 67 67 68 69 69 68 72 68 67 66 66 66 66 67 67 68 65 65 66 66 66 65 66 66 65 64 65 65 66 65 65 66 65 65 65 66 67 66 67 68 68 70 71 69 69 69 69 68 66 66 66 66 67 67 67 68 70
68 68 69 68 67 66 66 67 68 68 68 71 67 67 66 66 66 66 66 67 68 67 66 66 66 65 65 65 65 65 65 65 65 65 65 65 66 66 65 65 66 66 68 67 68 68 70 69 69 69 69 69 68 68 66 66 66 67 67 67 67 69
68 69 68 68 66 66 66 66 67 66 67 69 67 67 66 65 65 66 66 67 67 68 67 66 66 65 65 65 65 65 65 65 65 65 65 66 65 66 66 66 67 67 66 66 67 68 69 68 68 69 69 69 69 67 67 66 67 67 68 67 68 68
68 69 68 67 67 65 66 66 67 65 66 67 67 65 65 65 66 65 66 66 67 67 68 66 66 66 66 65 66 65 65 65 65 66 66 66 66 67 67 67 68 67 67 67 67 68 68 67 68 69 69 69 69 68 67 67 67 67 68 68 67 68
68 68 66 66 66 65 65 66 66 65 66 66 66 65 65 65 65 65 66 66 66 66 68 67 66 67 68 65 66 65 65 66 66 66 66 66 67 66 66 67 67 69 68 67 67 67 69 68 67 68 69 70 68 68 68 67 67 67 68 68 68 68
68 67 66 65 66 65 65 64 65 65 67 65 65 64 65 64 66 65 65 65 66 66 67 67 67 67 67 66 66 66 66 65 66 65 66 66 66 67 67 66 67 68 69 70 68 68 68 68 69 69 68 69 67 68 67 67 67 67 67 68 68 67
68 66 67 64 66 64 64 65 64 64 65 65 64 64 64 64 64 65 65 65 66 66 67 66 67 67 66 66 66 65 65 66 66 66 65 66 66 66 66 66 67 68 68 68 68 70 70 68 68 69 69 69 69 68 67 68 68 67 67 67 67 68
68 66 66 65 64 64 64 64 65 67 67 67 65 64 64 65 65 65 65 65 66 66 67 66 66 67 66 66 66 66 65 66 66 66 65 65 66 66 66 66 67 68 67 68 69 68 68 68 68 70 69 68 67 69 67 67 67 67 67 67 67 67
66 66 66 65 64 64 65 65 66 66 66 67 67 65 65 65 65 66 66 66 65 67 67 66 66 66 66 66 65 65 66 66 67 66 65 64 65 65 65 68 66 68 66 66 68 68 69 68 69 69 68 69 67 68 67 67 67 67 68 66 67 67
67 67 65 64 64 65 65 66 66 67 67 66 66 67 67 66 65 66 66 66 66 67 67 66 66 66 65 66 66 66 66 66 67 66 65 65 65 65 65 66 65 66 67 66 67 67 68 68 68 69 69 68 67 67 66 67 67 68 67 68 67 67
67 66 66 65 65 66 66 66 66 66 66 66 66 67 67 66 65 66 66 67 67 67 68 66 66 66 65 66 66 65 65 66 67 65 65 65 65 65 65 64 65 66 67 66 66 67 67 65 65 66 67 67 67 67 66 67 68 68 66 68 69 69
67 67 66 65 65 65 65 65 65 65 65 66 66 66 67 67 66 66 66 67 67 67 67 67 66 66 66 66 65 65 65 66 66 66 65 65 65 65 65 65 64 66 66 67 66 66 65 67 65 64 65 66 66 66 67 68 66 67 68 68 68 69
66 67 66 65 64 64 63 64 64 64 63 65 65 65 66 67 67 66 66 67 68 67 67 67 67 66 65 68 65 64 64 65 66 66 66 65 66 65 65 65 66 67 66 66 66 65 65 65 66 67 63 64 66 67 67 69 67 67 69 68 68 68
66 66 66 66 66 65 64 64 63 63 62 64 64 65 65 66 67 68 67 67 68 68 68 67 68 66 66 65 64 64 64 65 65 66 66 66 67 68 67 66 66 65 65 66 65 65 65 67 64 63 62 63 63 64 65 66 66 68 68 68 68 68
65 66 66 67 66 65 65 65 63 63 64 64 66 66 66 66 67 67 67 67 67 67 68 68 68 68 66 65 65 64 65 65 65 66 66 65 66 67 67 66 66 66 65 65 65 65 65 66 65 61 62 63 60 61 63 63 65 65 65 67 68 68
64 66 66 67 67 66 65 65 65 65 65 64 64 66 66 67 66 66 66 68 68 67 67 68 68 68 67 66 65 65 65 65 65 66 65 65 64 66 66 66 65 65 64 63 61 62 66 65 63 63 62 60 59 60 59 62 62 65 63 65 66 68
64 65 66 66 66 65 66 65 65 65 66 65 66 66 65 65 66 66 67 66 66 67 67 67 68 68 68 66 66 65 65 65 65 65 65 65 64 65 66 66 66 64 64 63 62 61 65 65 64 65 65 60 60 58 59 60 60 61 63 68 68 67
64 64 64 65 66 65 66 65 65 64 63 64 63 64 63 64 64 65 66 67 67 68 67 67 67 68 69 68 67 67 66 65 65 65 66 65 65 64 64 65 65 66 65 63 63 62 63 65 66 66 64 65 64 63 61 62 63 62 65 63 63 65
64 64 64 64 65 66 65 64 65 65 65 64 63 64 65 66 66 66 67 67 67 67 68 67 67 68 68 69 69 68 67 66 66 65 67 66 64 65 66 66 66 66 66 64 63 63 63 63 65 65 65 64 66 65 65 64 60 58 59 63 64 64
64 65 64 64 64 66 65 64 63 63 64 63 63 64 64 64 65 66 65 66 66 66 67 67 67 67 68 68 69 68 68 68 67 66 67 67 66 66 66 66 67 66 65 66 65 65 63 62 63 64 65 65 65 66 64 64 62 62 59 59 62 65
63 64 64 64 64 64 65 64 63 63 63 64 64 64 64 65 64 64 64 65 64 65 66 66 67 67 67 68 69 68 68 68 67 67 68 68 67 67 67 66 66 65 65 65 65 65 62 63 62 64 63 63 64 64 63 62 63 63 60 58 59 58
62 63 64 64 65 64 65 65 63 63 63 63 64 64 63 62 62 62 63 63 63 64 65 65 66 66 67 67 68 69 69 68 68 67 68 68 67 67 67 66 66 66 65 65 64 66 65 64 64 63 64 64 63 62 63 62 62 61 61 61 61 61
62 63 64 64 64 64 64 64 64 63 64 63 63 64 64 63 62 62 62 62 62 63 64 64 65 66 66 67 67 68 69 69 69 68 68 68 67 67 67 66 66 65 65 65 64 64 65 64 64 64 63 63 63 63 63 62 61 61 62 60 60 62
61 62 63 64 64 64 64 64 65 64 64 64 64 64 64 64 64 64 63 63 62 62 63 64 64 64 65 66 66 67 68 68 68 68 68 68 67 67 67 66 66 66 65 65 65 65 64 64 63 63 63 63 64 64 63 64 63 63 62 61 62 62
62 62 62 63 64 64 64 64 65 65 64 65 64 64 64 64 65 65 64 63 62 63 63 63 63 63 64 65 65 65 66 67 67 68 68 68 68 68 66 66 65 66 66 65 65 65 64 64 64 63 64 64 65 65 65 66 65 64 63 63 63 62
62 62 63 63 64 64 64 65 65 65 65 65 65 65 64 64 65 65 65 64 64 64 63 63 63 63 64 65 65 66 66 66 68 68 68 68 68 67 67 66 65 65 65 66 65 65 65 65 65 65 65 64 64 65 65 65 65 65 64 63 62 62
62 62 62 63 63 64 64 65 65 65 66 65 65 65 65 65 65 64 64 64 64 64 64 64 64 65 65 65 65 65 65 66 67 68 68 68 68 68 67 66 66 65 66 66 65 65 65 65 65 64 65 65 65 65 65 65 65 65 65 65 64 62
63 63 63 64 63 64 64 65 65 65 65 66 66 66 65 65 65 65 65 65 64 64 64 65 65 65 65 65 64 64 65 66 66 67 68 68 67 67 67 66 65 65 65 66 65 65 65 65 65 65 65 65 65 65 65 65 65 65 65 66 66 65
63 63 63 64 64 64 64 64 64 65 65 65 65 65 65 65 65 65 65 65 64 63 63 64 65 65 65 65 64 65 64 65 66 66 67 67 67 67 66 66 66 65 65 65 66 65 65 65 65 65 65 64 65 65 65 66 66 66 65 65 65 65
MSLP
1015.66 1015.78 1015.90 1015.94 1016.02 1016.18 1016.10 1015.94 1016.14 1016.38 1016.34 1016.30 1016.26 1016.26 1016.54 1016.78 1016.82 1016.94 1017.14 1017.34 1017.62 1017.90 1018.02 1018.02 1018.06 1018.14 1018.22 1018.26 1018.38 1018.46 1018.58 1018.74 1018.86 1018.86 1018.94 1018.98 1019.06 1019.14 1019.22 1019.30 1019.38 1019.50 1019.62 1019.70 1019.82 1019.86 1019.86 1019.78 1019.70 1019.70 1019.74 1019.78 1019.90 1020.14 1020.30 1020.42 1020.50 1020.54 1020.66 1020.70 1020.70 1020.78
1015.86 1015.98 1016.02 1016.06 1016.10 1016.22 1016.14 1016.10 1016.30 1016.34 1016.42 1016.34 1016.38 1016.38 1016.46 1016.78 1016.94 1017.10 1017.18 1017.46 1017.74 1017.90 1018.02 1018.14 1018.14 1018.18 1018.26 1018.34 1018.46 1018.58 1018.74 1018.86 1018.98 1019.02 1019.06 1019.14 1019.18 1019.22 1019.26 1019.30 1019.38 1019.50 1019.58 1019.70 1019.82 1019.98 1019.98 1019.90 1019.78 1019.78 1019.82 1019.78 1019.98 1020.18 1020.30 1020.38 1020.46 1020.54 1020.66 1020.74 1020.74 1020.78
1016.02 1016.10 1016.18 1016.22 1016.26 1016.26 1016.30 1016.30 1016.34 1016.42 1016.50 1016.50 1016.62 1016.74 1016.86 1016.86 1017.14 1017.26 1017.38 1017.54 1017.70 1017.90 1018.06 1018.18 1018.26 1018.34 1018.42 1018.50 1018.62 1018.66 1018.82 1018.94 1018.98 1019.06 1019.10 1019.18 1019.22 1019.26 1019.26 1019.30 1019.38 1019.50 1019.58 1019.66 1019.90 1020.14 1020.10 1020.10 1019.94 1019.78 1019.86 1019.98 1020.10 1020.18 1020.30 1020.38 1020.46 1020.54 1020.58 1020.66 1020.74 1020.74
1016.10 1016.18 1016.30 1016.42 1016.42 1016.46 1016.54 1016.50 1016.46 1016.50 1016.62 1016.78 1016.90 1017.10 1017.22 1017.22 1017.34 1017.42 1017.50 1017.58 1017.78 1017.94 1018.10 1018.26 1018.30 1018.38 1018.50 1018.66 1018.74 1018.78 1018.90 1018.94 1018.98 1019.02 1019.02 1019.14 1019.26 1019.34 1019.34 1019.34 1019.38 1019.54 1019.70 1019.82 1019.98 1020.18 1020.14 1020.10 1020.02 1019.98 1019.98 1020.06 1020.14 1020.26 1020.30 1020.38 1020.46 1020.54 1020.58 1020.62 1020.70 1020.70
1016.06 1016.22 1016.34 1016.46 1016.50 1016.58 1016.58 1016.62 1016.62 1016.66 1016.74 1016.90 1017.14 1017.26 1017.38 1017.42 1017.46 1017.54 1017.62 1017.70 1017.82 1017.94 1018.14 1018.34 1018.46 1018.58 1018.70 1018.82 1018.94 1018.98 1018.98 1019.06 1019.06 1019.14 1019.10 1019.30 1019.38 1019.46 1019.46 1019.54 1019.62 1019.70 1019.82 1019.90 1019.98 1020.14 1020.10 1020.14 1020.06 1020.06 1020.10 1020.10 1020.14 1020.26 1020.34 1020.38 1020.46 1020.50 1020.54 1020.54 1020.58 1020.70
1016.14 1016.30 1016.42 1016.58 1016.62 1016.62 1016.66 1016.78 1016.78 1016.82 1016.94 1017.14 1017.38 1017.50 1017.50 1017.50 1017.54 1017.54 1017.66 1017.74 1017.82 1018.02 1018.30 1018.50 1018.66 1018.82 1018.90 1018.90 1018.98 1019.06 1019.10 1019.14 1019.18 1019.26 1019.26 1019.38 1019.42 1019.46 1019.62 1019.70 1019.74 1019.86 1019.90 1019.86 1019.86 1019.94 1020.06 1020.02 1020.14 1020.18 1020.18 1020.14 1020.18 1020.26 1020.30 1020.38 1020.46 1020.50 1020.46 1020.50 1020.54 1020.62
1016.18 1016.30 1016.46 1016.54 1016.58 1016.58 1016.74 1016.74 1016.82 1016.86 1017.06 1017.34 1017.42 1017.50 1017.54 1017.50 1017.54 1017.58 1017.70 1017.74 1017.94 1018.14 1018.42 1018.66 1018.86 1018.94 1019.02 1018.98 1019.10 1019.14 1019.22 1019.26 1019.30 1019.34 1019.38 1019.46 1019.46 1019.50 1019.54 1019.70 1019.86 1019.90 1019.90 1019.86 1019.78 1019.78 1019.94 1020.06 1020.06 1020.18 1020.22 1020.18 1020.18 1020.22 1020.26 1020.34 1020.38 1020.46 1020.46 1020.46 1020.50 1020.54
1016.14 1016.26 1016.50 1016.54 1016.62 1016.70 1016.74 1016.78 1016.86 1016.86 1017.02 1017.18 1017.34 1017.46 1017.46 1017.50 1017.58 1017.70 1017.78 1017.78 1017.86 1018.14 1018.46 1018.74 1018.90 1019.02 1019.06 1019.14 1019.22 1019.26 1019.26 1019.26 1019.30 1019.30 1019.34 1019.42 1019.54 1019.54 1019.54 1019.58 1019.62 1019.74 1019.82 1019.82 1019.78 1019.70 1019.70 1019.86 1020.06 1020.06 1020.18 1020.22 1020.18 1020.18 1020.26 1020.30 1020.38 1020.46 1020.50 1020.54 1020.54 1020.58
1016.14 1016.26 1016.38 1016.50 1016.70 1016.74 1016.74 1016.74 1016.78 1016.90 1017.10 1017.02 1017.26 1017.34 1017.38 1017.50 1017.66 1017.74 1017.82 1017.86 1017.94 1018.26 1018.50 1018.74 1018.90 1018.98 1019.10 1019.22 1019.22 1019.26 1019.26 1019.26 1019.30 1019.34 1019.38 1019.54 1019.58 1019.66 1019.66 1019.66 1019.70 1019.74 1019.74 1019.74 1019.74 1019.70 1019.66 1019.58 1019.58 1019.74 1019.94 1020.06 1020.10 1020.10 1020.18 1020.26 1020.38 1020.46 1020.50 1020.54 1020.58 1020.62
1016.18 1016.26 1016.30 1016.46 1016.70 1016.86 1016.82 1016.86 1016.78 1016.94 1017.10 1017.06 1017.30 1017.30 1017.42 1017.58 1017.70 1017.78 1017.90 1017.94 1018.02 1018.26 1018.46 1018.66 1018.86 1019.02 1019.18 1019.22 1019.22 1019.22 1019.30 1019.34 1019.38 1019.38 1019.42 1019.58 1019.58 1019.66 1019.78 1019.86 1019.90 1019.94 1019.94 1019.90 1019.90 1019.82 1019.82 1019.82 1019.78 1019.78 1019.78 1019.90 1019.94 1020.02 1020.06 1020.14 1020.26 1020.34 1020.42 1020.54 1020.62 1020.62
1016.10 1016.18 1016.30 1016.50 1016.66 1016.82 1016.86 1016.90 1016.90 1016.98 1017.14 1017.18 1017.30 1017.42 1017.54 1017.66 1017.82 1017.86 1017.94 1018.02 1018.18 1018.30 1018.46 1018.62 1018.86 1019.06 1019.18 1019.18 1019.22 1019.30 1019.38 1019.38 1019.42 1019.38 1019.38 1019.50 1019.58 1019.70 1019.78 1019.82 1019.90 1019.94 1019.98 1020.02 1020.02 1019.94 1019.98 1019.94 1019.86 1019.82 1019.74 1019.74 1019.82 1019.90 1019.98 1020.06 1020.18 1020.30 1020.42 1020.50 1020.58 1020.62
1016.02 1016.14 1016.38 1016.50 1016.58 1016.74 1016.82 1016.90 1016.94 1017.06 1017.18 1017.22 1017.34 1017.50 1017.62 1017.78 1017.90 1017.98 1018.06 1018.22 1018.30 1018.38 1018.46 1018.66 1018.86 1019.02 1019.10 1019.18 1019.26 1019.30 1019.38 1019.46 1019.42 1019.34 1019.42 1019.50 1019.62 1019.66 1019.70 1019.78 1019.78 1019.82 1019.86 1019.94 1019.98 1019.94 1019.94 1020.02 1019.94 1019.78 1019.70 1019.70 1019.66 1019.78 1019.86 1020.02 1020.14 1020.26 1020.34 1020.42 1020.50 1020.58
1015.98 1016.14 1016.38 1016.50 1016.54 1016.62 1016.70 1016.86 1016.98 1017.10 1017.22 1017.30 1017.34 1017.46 1017.66 1017.82 1017.94 1018.10 1018.22 1018.30 1018.38 1018.42 1018.46 1018.66 1018.78 1018.90 1019.02 1019.14 1019.22 1019.26 1019.34 1019.38 1019.38 1019.38 1019.42 1019.50 1019.58 1019.62 1019.70 1019.78 1019.82 1019.82 1019.82 1019.86 1019.94 1019.94 1019.90 1019.90 1019.94 1019.70 1019.62 1019.54 1019.62 1019.66 1019.78 1019.94 1020.10 1020.18 1020.26 1020.34 1020.42 1020.46
1015.98 1016.14 1016.34 1016.46 1016.58 1016.74 1016.82 1016.98 1017.10 1017.22 1017.30 1017.38 1017.46 1017.62 1017.78 1017.90 1018.06 1018.22 1018.34 1018.42 1018.42 1018.46 1018.54 1018.62 1018.74 1018.86 1018.94 1019.10 1019.14 1019.18 1019.26 1019.38 1019.42 1019.38 1019.42 1019.46 1019.58 1019.62 1019.78 1019.90 1019.94 1019.90 1019.86 1019.90 1019.94 1019.94 1019.94 1019.94 1019.78 1019.70 1019.70 1019.58 1019.62 1019.54 1019.66 1019.78 1019.94 1020.02 1020.14 1020.30 1020.34 1020.42
1015.90 1016.14 1016.22 1016.42 1016.54 1016.78 1016.90 1017.10 1017.30 1017.42 1017.50 1017.50 1017.62 1017.74 1017.86 1017.98 1018.14 1018.30 1018.34 1018.38 1018.38 1018.50 1018.58 1018.70 1018.74 1018.82 1018.94 1019.02 1019.10 1019.18 1019.26 1019.30 1019.42 1019.42 1019.46 1019.46 1019.54 1019.62 1019.78 1019.94 1019.98 1020.02 1019.94 1019.94 1019.90 1019.86 1019.86 1019.82 1019.86 1019.82 1019.74 1019.62 1019.58 1019.54 1019.66 1019.74 1019.86 1019.98 1020.06 1020.22 1020.34 1020.34
1015.86 1016.06 1016.18 1016.34 1016.50 1016.66 1016.86 1017.06 1017.22 1017.34 1017.46 1017.54 1017.66 1017.78 1017.86 1017.98 1018.14 1018.22 1018.26 1018.34 1018.34 1018.46 1018.58 1018.66 1018.70 1018.74 1018.94 1018.98 1019.06 1019.14 1019.14 1019.18 1019.30 1019.38 1019.42 1019.46 1019.54 1019.66 1019.74 1019.86 1019.86 1019.90 1020.06 1019.94 1019.94 1019.90 1019.86 1019.94 1019.74 1019.62 1019.70 1019.66 1019.54 1019.54 1019.62 1019.74 1019.86 1019.94 1019.98 1020.14 1020.26 1020.30
1015.78 1015.90 1016.06 1016.26 1016.50 1016.66 1016.86 1017.02 1017.10 1017.22 1017.42 1017.50 1017.62 1017.74 1017.82 1017.94 1018.06 1018.14 1018.18 1018.22 1018.30 1018.42 1018.50 1018.62 1018.62 1018.70 1018.86 1018.94 1019.02 1019.10 1019.14 1019.14 1019.18 1019.34 1019.46 1019.54 1019.62 1019.66 1019.74 1019.86 1019.86 1019.86 1019.94 1020.06 1019.94 1019.86 1019.86 1019.86 1019.74 1019.62 1019.50 1019.54 1019.54 1019.58 1019.66 1019.78 1019.86 1019.94 1019.98 1020.14 1020.18 1020.26
1015.66 1015.74 1016.02 1016.26 1016.42 1016.62 1016.78 1016.90 1017.06 1017.18 1017.26 1017.42 1017.54 1017.62 1017.74 1017.86 1017.94 1017.94 1017.98 1018.06 1018.14 1018.26 1018.38 1018.50 1018.58 1018.62 1018.78 1018.90 1018.98 1019.14 1019.22 1019.18 1019.22 1019.38 1019.50 1019.62 1019.74 1019.74 1019.74 1019.78 1019.86 1019.90 1019.86 1019.94 1019.90 1019.86 1019.90 1019.82 1019.78 1019.70 1019.62 1019.62 1019.66 1019.58 1019.66 1019.74 1019.82 1019.90 1020.02 1020.06 1020.10 1020.14
1015.62 1015.74 1015.98 1016.18 1016.38 1016.58 1016.74 1016.90 1017.02 1017.14 1017.22 1017.34 1017.42 1017.50 1017.58 1017.74 1017.74 1017.74 1017.74 1017.74 1017.94 1018.10 1018.18 1018.34 1018.46 1018.58 1018.78 1018.90 1019.02 1019.14 1019.26 1019.26 1019.30 1019.42 1019.46 1019.58 1019.74 1019.78 1019.78 1019.78 1019.74 1019.78 1019.78 1019.78 1019.78 1019.74 1019.78 1019.82 1019.86 1019.90 1019.86 1019.78 1019.66 1019.70 1019.70 1019.70 1019.74 1019.82 1019.90 1019.86 1019.86 1019.90
1015.54 1015.66 1015.94 1016.22 1016.38 1016.62 1016.82 1016.98 1017.18 1017.22 1017.30 1017.38 1017.42 1017.46 1017.46 1017.54 1017.62 1017.62 1017.58 1017.66 1017.78 1017.94 1018.02 1018.14 1018.30 1018.46 1018.70 1018.86 1019.02 1019.10 1019.22 1019.22 1019.30 1019.42 1019.54 1019.58 1019.62 1019.66 1019.66 1019.74 1019.74 1019.74 1019.78 1019.82 1019.78 1019.82 1019.82 1019.90 1019.94 1020.02 1020.02 1019.82 1019.70 1019.66 1019.66 1019.70 1019.82 1019.82 1019.82 1019.82 1019.78 1019.78
1015.38 1015.50 1015.86 1016.22 1016.42 1016.58 1016.90 1017.18 1017.22 1017.22 1017.26 1017.22 1017.38 1017.38 1017.46 1017.42 1017.42 1017.46 1017.50 1017.58 1017.66 1017.74 1017.82 1017.94 1018.10 1018.30 1018.58 1018.70 1018.86 1019.02 1019.14 1019.22 1019.26 1019.38 1019.46 1019.50 1019.50 1019.58 1019.58 1019.58 1019.66 1019.74 1019.86 1019.94 1019.94 1019.86 1019.86 1019.94 1020.06 1020.18 1020.02 1020.02 1019.86 1019.66 1019.66 1019.66 1019.70 1019.74 1019.70 1019.66 1019.66 1019.74
1015.22 1015.46 1015.70 1015.94 1016.14 1016.34 1016.38 1016.50 1016.70 1016.82 1016.74 1016.94 1017.22 1017.30 1017.34 1017.26 1017.26 1017.30 1017.38 1017.50 1017.58 1017.62 1017.66 1017.78 1017.94 1018.10 1018.30 1018.46 1018.74 1018.94 1019.10 1019.18 1019.22 1019.30 1019.42 1019.46 1019.54 1019.54 1019.58 1019.62 1019.62 1019.86 1019.90 1019.94 1019.98 1019.94 1019.86 1019.90 1020.42 1020.74 1020.90 1020.78 1020.30 1019.82 1019.78 1019.78 1019.74 1019.70 1019.66 1019.62 1019.58 1019.62
1015.18 1015.38 1015.62 1015.82 1016.02 1016.22 1016.18 1016.18 1016.26 1016.46 1016.62 1016.94 1016.90 1016.82 1016.94 1016.98 1017.10 1017.22 1017.30 1017.34 1017.46 1017.54 1017.66 1017.82 1017.90 1017.98 1018.10 1018.26 1018.46 1018.74 1018.94 1019.06 1019.18 1019.26 1019.42 1019.50 1019.50 1019.62 1019.58 1019.62 1019.62 1019.78 1020.02 1020.02 1020.10 1020.22 1020.14 1019.94 1020.50 1020.74 1020.90 1021.06 1021.54 1021.26 1020.26 1019.98 1019.82 1019.66 1019.70 1019.62 1019.58 1019.62
1015.18 1015.34 1015.54 1015.74 1015.90 1015.98 1016.10 1016.22 1016.26 1016.46 1016.70 1016.86 1017.14 1017.02 1016.98 1016.98 1017.10 1017.18 1017.30 1017.22 1017.30 1017.46 1017.62 1017.82 1017.98 1018.02 1018.02 1018.14 1018.34 1018.54 1018.78 1018.94 1019.06 1019.14 1019.30 1019.46 1019.54 1019.62 1019.54 1019.58 1019.62 1019.82 1020.14 1020.58 1020.66 1020.50 1020.10 1020.06 1020.10 1020.46 1021.18 1021.46 1021.78 1021.78 1021.74 1021.26 1021.06 1020.02 1019.78 1019.70 1019.66 1019.66
1015.06 1015.26 1015.42 1015.62 1015.78 1015.98 1016.18 1016.38 1016.42 1016.62 1016.70 1016.90 1016.94 1016.98 1017.14 1017.22 1017.14 1017.14 1017.18 1017.26 1017.30 1017.34 1017.50 1017.70 1017.86 1017.98 1018.02 1018.18 1018.34 1018.54 1018.66 1018.74 1018.86 1019.02 1019.18 1019.38 1019.50 1019.54 1019.50 1019.42 1019.54 1019.74 1020.14 1020.70 1020.66 1020.42 1020.22 1020.10 1020.14 1020.06 1020.50 1021.62 1021.74 1021.74 1021.74 1021.50 1021.18 1020.34 1019.86 1019.66 1019.62 1019.66
1014.90 1015.06 1015.26 1015.42 1015.62 1015.86 1016.10 1016.38 1016.58 1016.86 1017.10 1017.18 1017.38 1017.30 1017.46 1017.50 1017.42 1017.42 1017.38 1017.22 1017.30 1017.34 1017.46 1017.58 1017.70 1017.78 1017.90 1018.06 1018.30 1018.46 1018.66 1018.70 1018.74 1018.86 1018.98 1019.18 1019.38 1019.54 1019.58 1019.54 1019.42 1019.42 1019.74 1019.86 1019.98 1020.30 1020.26 1020.10 1020.10 1020.22 1020.26 1020.30 1020.58 1021.26 1021.54 1021.30 1021.22 1021.42 1020.10 1020.02 1019.94 1019.62
1014.62 1014.78 1014.90 1015.14 1015.38 1015.66 1016.02 1016.26 1016.46 1016.62 1016.82 1017.10 1017.30 1017.18 1017.02 1017.06 1017.18 1017.14 1017.14 1017.26 1017.30 1017.34 1017.38 1017.50 1017.54 1017.58 1017.74 1017.90 1018.06 1018.26 1018.46 1018.54 1018.58 1018.66 1018.78 1019.02 1019.26 1019.42 1019.46 1019.50 1019.42 1019.46 1019.50 1019.70 1019.86 1020.26 1020.22 1020.26 1020.30 1020.30 1020.30 1020.30 1020.34 1020.42 1020.46 1020.98 1021.58 1021.58 1021.54 1020.42 1019.94 1019.90
1014.46 1014.58 1014.66 1014.86 1015.18 1015.34 1015.70 1015.94 1016.26 1016.50 1016.62 1016.78 1016.90 1016.98 1016.90 1016.94 1016.94 1017.06 1017.22 1017.26 1017.26 1017.34 1017.34 1017.34 1017.38 1017.42 1017.50 1017.66 1017.86 1018.06 1018.22 1018.38 1018.50 1018.58 1018.62 1018.82 1018.98 1019.18 1019.34 1019.34 1019.30 1019.34 1019.46 1019.58 1019.74 1020.02 1020.18 1020.30 1020.34 1020.46 1020.34 1020.50 1020.50 1020.50 1020.62 1020.62 1020.70 1021.22 1021.62 1021.86 1020.74 1020.06
1014.30 1014.42 1014.62 1014.78 1014.98 1015.18 1015.38 1015.66 1015.90 1016.14 1016.34 1016.22 1016.34 1016.50 1016.62 1016.70 1016.90 1016.98 1017.14 1017.18 1017.26 1017.26 1017.30 1017.30 1017.30 1017.38 1017.50 1017.58 1017.66 1017.86 1018.02 1018.22 1018.38 1018.46 1018.50 1018.58 1018.74 1018.90 1019.14 1019.26 1019.34 1019.42 1019.50 1019.62 1019.66 1019.74 1020.02 1020.10 1020.22 1020.18 1020.46 1020.58 1020.54 1020.66 1020.78 1020.90 1020.94 1020.98 1021.46 1021.82 1021.50 1021.22
1014.06 1014.14 1014.34 1014.62 1014.78 1015.02 1015.14 1015.38 1015.74 1015.86 1015.94 1016.06 1016.14 1016.34 1016.50 1016.70 1016.78 1016.90 1017.02 1017.10 1017.18 1017.26 1017.26 1017.30 1017.30 1017.38 1017.54 1017.66 1017.70 1017.70 1017.82 1017.98 1018.10 1018.26 1018.34 1018.42 1018.54 1018.70 1018.86 1018.98 1019.06 1019.18 1019.34 1019.50 1019.54 1019.62 1019.74 1019.78 1019.86 1019.98 1020.10 1020.30 1020.62 1020.86 1020.86 1021.02 1021.14 1021.26 1021.38 1021.34 1021.66 1021.50
1013.82 1013.94 1014.10 1014.38 1014.62 1014.86 1015.06 1015.22 1015.46 1015.58 1015.74 1015.94 1016.10 1016.34 1016.62 1016.70 1016.78 1016.90 1016.90 1016.94 1017.02 1017.10 1017.18 1017.26 1017.30 1017.38 1017.42 1017.54 1017.70 1017.70 1017.66 1017.70 1017.78 1017.90 1018.02 1018.14 1018.30 1018.46 1018.58 1018.70 1018.78 1018.94 1019.10 1019.26 1019.42 1019.50 1019.58 1019.66 1019.74 1019.90 1020.02 1020.06 1020.18 1020.42 1020.58 1020.90 1020.98 1021.26 1021.26 1021.42 1021.62 1021.50
1013.82 1013.90 1013.98 1014.14 1014.38 1014.62 1014.82 1015.02 1015.14 1015.34 1015.54 1015.66 1015.86 1016.14 1016.34 1016.54 1016.62 1016.78 1016.86 1016.90 1016.94 1017.06 1017.10 1017.22 1017.30 1017.34 1017.34 1017.34 1017.42 1017.46 1017.46 1017.54 1017.62 1017.66 1017.78 1017.86 1018.06 1018.26 1018.42 1018.50 1018.62 1018.74 1018.90 1019.02 1019.18 1019.38 1019.54 1019.70 1019.82 1019.94 1019.98 1019.98 1019.98 1020.06 1020.18 1020.30 1020.42 1020.66 1020.94 1021.02 1021.14 1021.30
1013.50 1013.62 1013.82 1013.94 1014.10 1014.26 1014.50 1014.66 1014.82 1015.02 1015.18 1015.34 1015.62 1015.78 1015.94 1016.18 1016.30 1016.50 1016.62 1016.78 1016.94 1017.02 1017.10 1017.22 1017.18 1017.22 1017.10 1017.10 1017.14 1017.30 1017.34 1017.42 1017.50 1017.54 1017.62 1017.78 1017.94 1018.06 1018.22 1018.34 1018.46 1018.58 1018.70 1018.90 1019.02 1019.22 1019.42 1019.54 1019.70 1019.86 1019.78 1019.82 1019.86 1019.94 1019.98 1019.98 1020.18 1020.38 1020.54 1020.74 1020.90 1021.38
1013.02 1013.26 1013.54 1013.74 1013.86 1014.06 1014.14 1014.30 1014.50 1014.70 1014.86 1015.06 1015.30 1015.46 1015.66 1015.86 1016.02 1016.18 1016.34 1016.54 1016.62 1016.74 1016.86 1016.82 1016.86 1016.86 1016.74 1016.82 1016.86 1016.86 1016.98 1017.10 1017.14 1017.30 1017.46 1017.58 1017.74 1017.86 1017.98 1018.18 1018.30 1018.46 1018.58 1018.62 1018.82 1019.02 1019.10 1019.26 1019.38 1019.46 1019.58 1019.78 1019.86 1019.90 1019.86 1019.90 1020.06 1020.30 1020.50 1020.70 1021.02 1021.14
1012.82 1013.02 1013.22 1013.38 1013.58 1013.74 1013.86 1014.02 1014.18 1014.34 1014.54 1014.74 1014.98 1015.18 1015.34 1015.50 1015.74 1015.98 1016.14 1016.30 1016.38 1016.46 1016.54 1016.46 1016.46 1016.34 1016.42 1016.54 1016.62 1016.74 1016.82 1016.90 1016.98 1017.10 1017.22 1017.42 1017.54 1017.66 1017.82 1018.06 1018.26 1018.38 1018.46 1018.54 1018.70 1018.82 1018.94 1019.06 1019.22 1019.30 1019.42 1019.46 1019.54 1019.70 1019.70 1019.74 1019.90 1019.98 1020.06 1020.22 1020.50 1020.70
1012.30 1012.54 1012.82 1013.02 1013.18 1013.30 1013.46 1013.66 1013.90 1014.14 1014.30 1014.46 1014.66 1014.86 1015.10 1015.22 1015.42 1015.58 1015.86 1016.14 1016.34 1016.54 1016.62 1016.34 1016.10 1016.10 1016.10 1016.22 1016.38 1016.58 1016.70 1016.74 1016.78 1016.90 1016.98 1017.14 1017.30 1017.50 1017.70 1017.98 1018.22 1018.34 1018.50 1018.46 1018.66 1018.78 1018.86 1018.98 1019.10 1019.18 1019.22 1019.34 1019.50 1019.50 1019.50 1019.58 1019.66 1019.74 1019.82 1019.90 1020.10 1020.30
1012.10 1012.34 1012.50 1012.58 1012.74 1012.94 1013.18 1013.50 1013.66 1013.86 1014.10 1014.30 1014.46 1014.66 1014.82 1014.98 1015.18 1015.42 1015.70 1016.06 1016.42 1016.38 1015.86 1015.66 1015.70 1015.70 1015.86 1015.94 1016.02 1016.18 1016.38 1016.50 1016.62 1016.66 1016.78 1016.90 1017.10 1017.34 1017.58 1017.86 1018.06 1018.22 1018.38 1018.42 1018.54 1018.66 1018.74 1018.86 1018.90 1019.02 1019.10 1019.22 1019.26 1019.30 1019.30 1019.30 1019.42 1019.46 1019.74 1019.90 1019.98 1019.98
Wind_Speed
4 4 4 4 4 6 7 12 9 9 10 9 9 13 12 12 12 10 9 8 7 4 3 2 5 4 8 6 7 8 7 7 6 5 3 2 2 2 2 3 4 5 5 5 6 7 5 4 3 3 4 9 12 5 4 5 4 4 3 3 3 3
4 4 5 4 4 5 6 8 7 5 4 6 6 7 8 5 7 3 9 6 5 3 4 3 4 5 4 4 5 7 7 6 5 4 3 2 2 2 2 2 3 4 4 4 5 3 2 3 2 4 4 8 5 5 5 5 5 4 4 3 3 4
4 4 6 5 4 4 5 4 6 5 4 5 4 2 0 5 3 4 4 5 4 4 3 3 2 2 3 4 4 7 7 6 5 4 3 2 2 2 2 2 3 3 2 2 3 4 2 1 1 3 4 3 4 4 5 5 4 4 4 4 3 5
5 5 6 5 5 4 4 3 4 4 4 3 1 1 1 2 4 4 5 4 4 4 3 3 5 7 7 2 3 6 6 6 6 4 4 2 4 4 5 5 4 4 3 2 1 3 2 1 2 2 2 3 4 4 5 5 4 4 3 4 4 7
5 4 6 6 7 5 5 4 4 4 4 4 3 3 2 3 4 4 4 4 4 3 3 3 0 0 3 3 1 0 1 2 1 1 2 2 2 2 2 2 3 3 1 1 1 2 3 3 2 2 2 2 3 4 4 3 3 3 4 4 4 8
5 5 5 5 5 6 7 5 5 5 5 3 3 3 2 3 4 4 4 4 3 4 3 2 0 1 2 3 2 2 3 3 2 2 0 0 1 1 2 2 2 2 1 2 2 3 4 4 3 3 3 2 3 4 4 4 3 4 4 4 4 9
6 5 5 5 5 5 5 5 5 5 5 4 4 4 4 3 4 5 4 4 4 4 4 3 2 2 3 3 3 2 2 2 3 2 0 1 2 3 2 1 2 2 2 2 1 1 3 4 4 4 3 2 2 3 4 4 4 4 4 4 4 9
6 6 5 6 5 5 5 5 5 6 5 5 5 4 4 4 4 5 4 4 4 4 4 4 4 4 4 3 3 3 3 3 3 3 0 1 1 3 3 3 3 1 1 2 3 3 3 2 5 4 3 3 3 3 3 3 3 4 3 3 3 7
5 6 5 5 5 4 4 4 5 4 6 6 5 5 4 4 4 4 4 4 4 4 4 4 5 5 3 4 3 4 4 4 3 3 1 0 0 2 2 3 3 4 5 5 4 4 5 5 5 2 1 2 3 3 3 3 4 4 4 3 3 4
6 5 5 5 5 5 5 5 4 4 5 6 5 4 4 4 4 4 4 4 4 4 5 5 4 3 4 5 4 4 4 4 3 2 2 3 2 1 2 2 3 3 4 4 4 4 4 5 5 4 4 3 3 3 3 4 4 4 4 3 3 3
5 7 5 5 5 6 5 5 4 4 4 4 4 3 3 3 3 3 3 3 4 4 4 4 4 4 4 4 4 4 4 3 4 4 3 3 1 1 1 1 1 2 3 3 4 3 4 5 5 5 4 4 3 3 3 3 3 3 4 4 3 3
6 6 6 6 5 5 5 5 5 4 4 2 3 2 2 2 2 2 2 3 4 4 4 4 4 4 5 4 4 4 4 4 5 4 3 2 2 1 1 2 2 2 3 3 4 4 4 4 5 5 4 4 3 3 3 3 3 4 3 4 4 3
7 6 6 6 5 4 4 3 4 3 2 2 2 1 2 2 3 3 2 3 4 4 4 4 4 4 4 4 4 4 4 4 4 4 2 2 2 2 2 2 2 1 2 3 4 5 3 4 5 5 3 3 3 3 3 3 3 3 4 4 4 4
6 6 6 5 5 4 3 2 1 2 2 3 2 2 2 2 2 2 2 3 3 3 3 3 4 4 3 4 4 4 4 3 3 4 2 2 3 3 3 2 3 3 3 3 5 4 2 3 3 3 3 3 3 3 3 4 4 3 3 3 4 4
7 5 6 5 5 4 3 3 4 3 3 3 3 3 2 2 2 2 3 3 3 3 2 3 4 4 4 3 4 4 4 4 3 3 2 2 3 2 2 3 2 4 4 4 4 3 2 2 3 3 2 2 3 2 2 3 3 3 4 4 3 4
7 6 5 5 4 5 5 4 4 4 4 3 3 2 2 3 3 3 3 3 3 3 3 3 4 4 4 4 4 4 4 3 3 2 2 2 2 3 3 3 3 4 4 5 3 3 1 3 2 3 0 1 1 2 3 3 4 4 3 3 3 4
8 7 6 5 5 5 5 5 5 5 4 4 3 3 3 3 3 4 4 3 3 3 2 3 4 3 3 4 4 3 3 3 2 2 2 2 3 4 4 3 3 2 3 4 4 4 2 1 3 3 2 2 2 2 3 3 3 3 3 4 4 4
6 5 5 5 5 6 5 5 5 5 5 4 4 3 3 3 4 4 4 4 4 3 3 4 4 3 3 3 3 2 3 3 2 2 2 3 3 2 3 3 3 2 1 2 4 3 1 1 1 2 3 3 3 1 2 3 3 3 4 4 4 5
7 6 6 6 6 6 6 5 4 4 5 4 3 3 4 3 4 5 4 4 5 4 4 5 4 4 3 3 2 2 2 2 2 2 2 2 2 2 2 2 3 2 1 1 2 1 0 1 2 2 2 3 3 2 1 1 3 4 5 4 4 5
6 6 6 7 6 6 4 4 4 3 3 3 3 3 4 4 3 3 4 4 5 5 5 5 5 5 4 3 2 1 2 2 3 2 2 2 2 3 3 3 2 2 1 1 3 2 1 1 1 1 1 3 3 3 2 2 2 4 4 4 4 3
6 7 6 6 6 6 5 4 2 3 3 5 4 4 4 4 4 3 4 5 5 5 5 5 5 5 5 4 3 2 2 3 3 3 3 3 2 2 2 2 2 2 2 2 0 1 1 1 3 2 2 2 4 3 3 2 3 3 3 3 2 3
6 8 7 6 5 4 4 5 5 6 4 5 5 5 5 5 5 5 5 5 5 5 5 5 5 5 6 5 4 3 4 4 4 4 3 2 2 2 2 2 3 2 2 1 2 1 1 1 3 1 2 5 4 5 2 2 3 2 2 2 2 3
6 9 8 7 5 5 3 3 3 3 4 3 3 4 3 2 4 5 5 5 4 4 4 4 5 5 6 6 5 5 5 4 4 4 3 3 3 3 3 4 4 4 2 0 1 3 3 1 1 2 1 1 2 4 4 4 2 2 2 1 2 2
8 7 9 8 7 5 2 1 0 1 2 3 1 3 4 3 3 4 5 5 4 4 3 4 5 5 3 5 6 6 5 5 4 4 4 4 4 4 3 3 3 2 2 2 3 3 2 2 2 3 1 1 1 1 3 3 4 5 2 1 1 1
7 8 8 10 8 5 4 4 2 2 2 1 1 2 2 2 3 4 3 4 4 4 4 5 4 4 4 4 4 4 5 5 5 4 4 4 4 5 5 4 4 5 5 4 4 3 3 2 1 0 4 2 1 1 1 3 3 2 4 3 3 2
7 7 8 8 7 5 5 5 5 5 4 3 4 3 4 2 2 2 3 2 3 4 5 5 5 6 6 5 5 5 5 5 5 5 5 4 3 3 3 4 5 5 6 3 3 3 2 1 1 0 1 1 2 1 1 2 1 3 4 0 3 3
8 8 8 8 7 7 6 5 7 6 5 4 4 3 2 1 1 2 2 3 4 4 5 6 6 6 5 6 6 5 6 5 4 5 4 4 3 4 4 3 3 4 4 3 3 3 4 2 1 1 2 1 1 1 2 1 1 1 4 3 2 3
7 7 7 7 8 8 8 7 7 6 5 6 6 5 2 2 2 3 4 5 4 4 5 6 6 6 6 6 6 5 5 5 5 4 5 5 5 4 3 3 4 3 2 3 4 4 3 2 3 2 2 2 1 1 2 3 4 3 2 3 5 3
8 7 6 7 8 8 8 7 7 6 6 5 5 5 3 3 3 4 4 4 5 4 5 6 6 5 6 7 7 7 7 6 5 5 5 5 5 5 6 5 5 4 4 4 4 3 3 4 3 3 3 2 2 2 2 1 2 2 2 1 4 2
10 9 7 8 8 8 8 7 7 7 8 6 5 3 3 4 4 4 4 4 4 5 5 5 6 6 5 7 6 7 7 7 7 6 5 5 6 6 6 7 7 7 5 6 4 5 6 4 4 3 3 4 3 2 1 1 1 2 1 1 4 4
10 8 8 9 9 9 8 7 7 7 8 7 6 4 4 4 3 3 4 4 4 5 5 5 5 6 6 6 7 7 6 6 6 6 6 7 8 8 6 6 6 6 6 7 5 5 4 4 3 3 4 4 4 4 4 3 3 3 3 2 1 4
8 9 8 8 9 9 8 8 7 8 8 8 7 6 7 7 6 5 5 5 4 3 4 5 5 5 7 7 7 7 7 7 7 7 8 7 6 6 6 5 5 6 6 6 5 5 4 4 4 3 4 3 3 3 2 3 3 4 4 3 2 3
10 9 9 9 10 10 9 9 9 9 9 7 7 7 7 7 6 6 6 5 4 5 4 4 5 6 7 9 7 7 8 8 7 7 6 6 7 6 6 6 6 7 6 6 6 6 5 6 6 6 6 5 3 3 4 2 3 3 2 2 2 4
12 9 8 9 9 10 10 10 9 9 9 8 8 8 7 7 6 6 6 6 6 6 6 7 6 8 7 7 8 8 8 8 7 6 6 6 6 6 7 6 6 6 7 7 5 7 6 6 6 6 4 4 5 5 4 3 3 3 4 3 3 4
11 9 9 10 9 10 9 9 9 9 8 7 7 7 7 6 5 6 5 6 5 4 5 6 6 7 6 7 7 7 7 7 7 7 6 7 6 7 6 6 5 6 5 5 6 6 6 6 6 6 6 6 4 4 4 4 4 5 4 4 4 3
12 11 11 11 10 10 10 8 8 9 9 8 7 6 6 5 5 6 5 5 4 2 4 5 6 5 6 7 7 7 7 7 7 8 8 8 8 7 6 6 5 5 6 4 5 6 5 5 6 6 6 4 3 5 4 4 5 4 5 4 3 3
10 8 10 11 11 9 9 8 9 9 8 8 8 9 8 7 7 5 5 4 4 4 9 9 7 6 6 7 7 7 7 8 8 7 8 8 7 6 6 6 6 6 6 5 6 6 5 6 6 5 5 6 6 5 5 4 5 5 2 3 5 4
Wind_Direction
108 100 109 113 113 123 153 154 170 165 160 140 150 154 156 163 160 150 139 147 131 90 118 128 128 131 144 137 144 147 148 149 146 138 130 127 95 71 82 121 130 128 127 130 121 108 92 86 83 85 104 160 170 137 137 148 161 158 161 182 175 186
113 112 114 113 120 139 159 155 140 177 169 152 163 159 151 152 151 139 153 133 108 122 114 103 139 158 131 147 153 157 156 153 146 137 133 112 86 54 57 111 134 131 134 142 119 103 70 62 91 127 132 150 125 145 150 164 164 170 165 182 181 214
123 118 109 114 121 136 128 134 147 147 164 153 166 142 206 142 114 125 111 121 119 118 121 124 134 156 147 147 172 167 170 159 153 152 143 133 100 81 78 109 124 133 130 94 74 73 62 62 331 125 109 113 142 151 163 171 172 173 174 183 184 219
134 133 121 127 123 118 136 148 148 144 149 103 105 99 318 111 123 120 129 126 118 107 108 128 175 174 175 131 189 183 184 173 170 167 172 82 60 64 69 63 85 106 84 60 74 94 116 152 86 30 109 132 164 167 177 181 181 175 176 196 191 219
148 135 130 144 144 146 149 153 161 140 143 146 163 187 219 138 133 126 125 124 115 111 110 155 7 57 118 142 113 45 140 87 81 94 78 99 101 77 71 83 63 87 107 179 212 128 135 127 132 126 151 159 162 177 188 184 188 184 186 206 200 213
143 144 139 143 154 162 161 162 154 157 152 154 159 202 181 145 131 128 120 119 108 103 110 138 32 53 156 148 155 131 142 133 120 176 9 21 34 64 97 67 79 130 195 206 206 161 146 138 149 154 178 195 173 182 188 184 187 198 200 198 212 211
151 152 135 148 163 159 166 170 159 163 164 167 187 177 175 146 140 129 124 128 127 128 137 159 160 190 206 191 187 153 164 138 157 213 279 67 354 346 356 69 143 167 221 221 233 205 139 143 152 156 173 194 188 185 188 184 189 202 206 204 212 213
151 153 143 156 162 148 164 169 173 169 167 176 181 176 176 164 139 134 144 152 140 144 159 166 180 187 215 211 202 188 176 176 178 230 103 96 3 340 345 357 348 289 30 7 351 359 353 138 157 154 158 184 195 184 190 195 197 202 217 220 211 219
152 154 149 148 153 164 169 166 180 167 160 184 174 187 172 150 149 150 158 158 150 162 164 181 189 193 177 207 202 176 192 209 195 230 121 344 293 310 331 349 345 344 356 353 348 341 345 334 337 339 132 186 189 194 189 186 189 192 206 214 217 228
161 157 152 152 156 163 177 175 176 170 168 186 180 180 156 163 162 161 166 168 176 174 186 192 195 173 174 205 206 187 189 217 211 204 171 232 230 170 350 7 359 1 350 342 332 319 330 312 314 308 307 266 225 210 188 178 186 190 194 202 214 223
160 168 157 166 168 169 172 182 178 172 191 186 174 172 157 141 136 162 165 171 188 194 201 209 187 169 189 197 201 190 203 205 232 229 201 210 187 139 129 139 48 290 299 311 295 298 300 295 289 287 277 267 233 185 186 183 178 182 186 195 203 214
171 170 167 170 176 172 174 183 180 165 191 139 149 156 134 117 166 165 165 182 198 208 214 212 192 186 189 194 198 195 199 196 228 234 200 182 211 176 183 189 185 187 217 240 275 280 270 266 280 275 266 243 204 185 178 175 183 179 185 188 195 208
174 176 168 176 178 180 163 171 171 179 134 94 114 120 139 169 195 187 177 192 207 213 219 205 208 208 199 191 192 190 204 216 227 240 200 176 191 216 295 318 316 337 289 270 276 281 267 239 255 271 260 238 185 191 161 166 185 181 188 189 191 197
179 172 170 168 170 166 162 153 112 94 122 101 117 130 160 158 200 167 163 190 216 224 218 211 208 221 193 176 188 196 206 237 224 221 192 163 218 222 254 288 311 318 290 276 274 281 232 244 262 290 274 245 195 189 164 175 185 190 182 192 186 193
189 175 181 172 162 157 145 138 121 126 114 126 130 130 116 135 139 123 141 175 205 215 210 201 223 220 208 184 190 210 214 216 207 201 182 198 219 260 224 255 250 279 289 288 267 256 218 233 254 240 247 224 216 172 171 200 183 185 186 188 180 194
187 176 180 172 143 140 131 126 133 140 117 122 126 132 157 154 140 136 154 174 187 191 174 192 218 218 215 205 206 215 231 204 210 182 184 211 209 242 235 252 247 229 274 276 252 250 146 230 279 322 196 210 232 182 185 190 198 197 181 173 195 192
182 180 176 143 127 123 124 127 134 121 137 148 154 159 170 151 150 154 162 184 164 194 149 180 213 212 208 224 226 230 259 257 221 183 169 189 221 219 193 225 270 229 180 257 253 244 237 357 313 319 335 71 68 152 200 201 212 196 167 190 194 196
178 171 149 141 139 133 134 134 137 143 151 160 178 190 193 174 167 164 179 197 185 183 164 169 191 200 193 210 224 231 277 270 221 146 131 148 189 195 208 177 212 216 184 229 241 229 263 254 330 338 356 16 34 58 190 207 201 194 190 199 200 204
179 155 143 136 140 136 137 138 132 145 143 151 171 192 192 192 178 169 186 191 193 179 171 153 169 177 173 216 188 187 239 251 200 160 121 132 153 176 170 195 177 197 72 253 216 139 156 128 37 13 355 333 355 33 349 200 198 190 206 212 205 212
173 151 142 141 142 143 144 150 150 146 140 169 183 193 198 198 166 181 194 189 189 178 174 157 156 156 158 163 157 184 228 227 220 175 152 151 175 184 181 187 202 154 149 64 39 49 42 69 61 61 326 316 308 297 262 154 177 202 209 215 220 202
171 151 152 155 160 160 149 140 157 170 190 186 187 195 207 200 185 180 196 200 186 186 172 162 157 153 156 177 158 162 173 223 211 192 203 227 205 179 168 171 148 97 161 151 86 10 43 70 50 345 346 348 318 288 281 230 218 215 211 217 206 217
163 165 167 173 169 175 160 172 167 193 173 168 183 192 201 204 195 185 189 205 204 195 184 176 165 162 155 152 145 160 176 199 199 200 196 178 176 191 148 127 132 103 39 173 208 337 315 44 27 96 25 334 338 324 356 328 318 289 254 237 213 208
168 171 174 179 183 185 195 188 150 161 155 140 220 208 198 164 180 184 190 197 204 205 202 196 192 173 164 160 155 157 180 179 185 188 174 159 152 180 181 187 175 169 191 53 71 20 311 63 142 124 132 56 352 1 332 356 329 323 342 277 229 217
172 167 177 190 197 205 180 118 72 75 99 94 185 210 220 201 194 193 203 198 214 206 201 207 206 207 184 162 155 166 166 171 172 185 171 174 175 186 188 186 159 134 65 38 23 269 267 244 131 142 329 59 231 114 322 7 330 295 289 327 60 284
170 174 177 191 197 180 152 133 129 67 91 126 332 136 151 203 202 207 203 204 214 210 198 209 198 193 195 168 159 159 169 171 171 174 170 178 193 205 207 191 155 137 184 178 218 234 258 237 260 159 138 123 352 12 219 258 335 286 349 7 1 359
175 176 182 188 182 159 174 166 167 189 204 207 233 229 236 241 218 220 240 192 212 222 220 213 206 201 207 187 170 172 174 169 172 173 176 175 187 203 222 192 190 181 188 202 151 170 270 257 217 147 114 153 176 172 209 259 75 309 325 216 301 322
184 186 184 178 168 164 158 169 189 200 199 201 224 238 192 128 163 169 185 200 202 208 227 220 217 212 198 207 200 191 186 182 174 174 174 164 177 206 216 217 199 191 196 160 128 166 207 196 93 254 207 167 121 64 153 101 252 52 343 314 352 348
191 192 189 171 172 175 178 176 178 193 195 202 212 229 157 150 149 216 229 230 220 213 227 229 221 213 200 201 202 188 191 183 177 173 182 193 201 201 191 215 208 196 157 171 186 200 209 205 169 188 209 210 208 125 62 73 131 153 184 287 312 322
191 194 188 179 177 182 182 182 186 184 200 207 202 212 164 160 168 198 206 222 229 234 229 233 229 211 210 203 204 200 198 199 194 194 202 201 199 194 202 198 199 191 191 204 195 186 143 204 202 182 142 165 172 206 135 84 138 115 159 175 288 314
195 194 184 183 181 185 186 179 183 192 203 210 198 184 162 175 178 173 209 214 222 231 232 230 225 217 209 215 209 197 191 200 207 206 214 208 197 191 194 198 201 200 195 199 206 194 202 202 202 185 189 155 154 143 137 131 168 168 260 216 266 306
198 193 189 187 183 188 188 186 193 196 205 211 202 185 194 213 191 192 217 219 210 223 225 225 224 226 215 209 216 213 207 201 198 206 212 211 204 199 195 196 196 195 195 196 198 204 212 210 182 187 185 173 177 172 174 185 196 194 192 200 229 280
198 196 192 189 187 191 188 193 196 196 204 209 198 194 205 213 203 214 220 228 219 218 230 228 220 221 220 213 210 212 211 207 210 209 214 210 202 196 203 198 192 195 202 200 194 196 206 214 211 213 213 201 189 184 168 186 180 171 180 211 190 261
208 196 195 189 192 193 191 194 197 199 204 200 199 200 203 208 199 206 212 217 201 217 218 224 223 220 222 215 210 209 206 209 212 213 214 208 213 202 200 198 198 203 205 199 197 196 202 213 206 208 218 214 206 188 216 205 145 156 169 135 182 267
211 197 195 194 196 196 198 197 196 199 202 197 200 201 206 207 197 198 197 209 207 210 210 216 212 220 216 207 211 211 204 206 209 207 206 206 206 202 204 202 199 203 208 209 190 196 208 207 207 216 200 204 212 216 228 189 161 158 172 161 197 222
204 198 195 200 198 202 203 198 197 199 199 197 203 200 208 206 193 192 194 202 212 210 214 220 210 215 198 202 207 207 206 203 205 206 206 210 212 207 197 203 202 213 213 202 200 202 213 209 211 208 204 209 204 212 225 190 182 195 174 185 175 165
201 194 194 199 203 204 206 199 198 198 200 198 202 201 207 201 199 190 188 190 203 255 280 261 234 208 202 190 196 201 206 210 206 207 209 209 208 203 192 190 201 204 215 200 199 207 217 211 224 214 210 201 201 228 217 205 202 187 198 180 189 163
203 197 198 201 202 202 202 199 203 201 197 198 199 202 205 204 198 183 170 136 96 198 222 230 230 211 197 194 195 193 197 205 205 204 206 209 202 198 186 194 199 197 208 194 194 208 208 209 221 211 210 199 207 220 222 209 213 214 187 193 190 193